Location: Unspecified
(0.0000°N, 0.0000°E)
Time: 07:24:17
(UTC+00:00)

Explorer 11/Cluster Stage 4 - Visible Passes

Search period start: 04 August 2015 00:00
Search period end: 14 August 2015 00:00
Orbit: 468 x 1271 km, 28.8° (Epoch: 03 August)

Date Brightness Start Highest point End Pass type
(mag) Time Alt. Az. Time Alt. Az. Time Alt. Az.
09 Aug 9.0 20:38:21 10° NNW 20:38:29 11° NNW 20:38:29 11° NNW visible
10 Aug 8.7 20:29:31 10° NNW 20:30:12 14° NNW 20:30:12 14° NNW visible
11 Aug 9.5 05:44:27 10° S 05:46:55 12° SSE 05:49:34 10° SE visible
11 Aug 8.4 20:20:44 10° NW 20:21:58 19° NNW 20:21:58 19° NNW visible
12 Aug 9.5 05:34:30 10° S 05:38:16 14° SSE 05:42:10 10° SE visible
12 Aug 7.9 20:12:01 10° NW 20:13:48 25° NW 20:13:48 25° NW visible
13 Aug 9.4 05:24:51 10° SSW 05:29:35 16° SSE 05:34:24 10° ESE visible
13 Aug 7.4 20:03:22 10° NW 20:05:40 34° NW 20:05:40 34° NW visible
